HIMAWARI-8

Last updated on Sat Aug 22 2026 00:02:39 GMT+0000 (Coordinated Universal Time)

1 40267U 14060A 26233.22492539 -.00000279 00000+0 00000+0 0 9999 2 40267 0.0352 291.5849 0001116 242.2325 17.3210 1.00267269 43417
UTC large
Height (km)
Speed (km/s)
/
Latitude / Longitude
Inclination (degrees)
Orbital Period (minutes)
Azimuth
Elevation
Range (km)
Doppler Factor

Next 0 passes for location: London (51.5072 / 0.1276)

No passes found over London.
HIMAWARI-8